Location: Arclight Observatory
(36.5667°N, 87.3333°W)
Time: 15:34:03
(UTC-06:00)

Daily predictions for brighter satellites

Satellite Brightness Start Highest point End
(mag) Time Altitude Azimuth Time Altitude Azimuth Time Altitude Azimuth
Cosmos 1975 3.3 16:56:27 10° NNW 17:00:29 67° W 17:04:30 10° S
ISS -3.9 16:59:13 10° NW 17:02:31 78° NE 17:05:47 10° SE
Cosmos 2369 3.8 16:58:08 10° S 17:03:45 69° ESE 17:09:26 10° NNE
Cosmos 2278 3.8 16:58:20 10° S 17:03:56 65° ESE 17:09:35 10° NNE
AQUARIUS 4.4 17:00:05 10° SSE 17:04:24 50° ENE 17:08:45 10° N
SJ 16-02 1.4 17:02:34 10° S 17:06:52 61° ESE 17:11:13 10° NNE
CSL-04 Rocket 3.7 17:02:28 10° SSE 17:07:51 71° ENE 17:13:20 10° N
CZ-2C R/B 3.7 17:03:20 10° S 17:08:20 48° W 17:13:19 10° NNW
COSMO-SKYMED 1 3.8 17:05:09 10° NE 17:08:40 24° E 17:12:09 10° SSE
Meteor 1-13 Rocket 4.2 17:04:44 10° S 17:10:18 82° E 17:16:01 10° N
Meteor 1-28 Rocket 3.3 17:07:49 10° NNE 17:11:33 59° E 17:15:16 10° S
CENTAUR R/B 4.2 17:07:24 10° N 17:12:53 20° NE 17:18:38 10° E
IRAS Rocket 4.2 17:08:14 10° SSE 17:13:41 79° ENE 17:19:11 10° NNW
Hubble Space Telescope 3.2 17:12:07 10° WSW 17:15:09 20° SSW 17:18:10 10° SE
Cosmos 1697 Rocket 2.9 17:13:48 10° S 17:19:14 52° ESE 17:24:42 10° NNE
Cosmos 1743 3.6 17:19:38 10° NNW 17:23:27 54° W 17:27:14 10° S
CZ-4 R/B 1.3 17:21:35 10° SSE 17:25:23 61° ENE 17:29:17 10° N
CZ-2C R/B 3.8 17:20:56 10° NNE 17:25:38 67° ESE 17:30:22 10° S
EO 1 Del DPAF 4.3 17:22:27 10° NE 17:25:41 26° E 17:28:55 10° SSE
SPOT 3 Rocket 4.4 17:24:03 10° SE 17:28:22 28° ENE 17:32:42 10° N
Cosmos 1025 Rocket 3.7 17:25:51 10° SSE 17:29:41 33° E 17:33:32 10° NNE
Ariane Rocket 3.1 17:25:27 10° S 17:30:30 81° WSW 17:35:35 10° NNW
Okean 1-7 Rocket 4.4 17:32:09 10° SSE 17:35:56 29° E 17:39:24 12° NNE
Cosmos 2082 3.6 17:30:26 10° NNW 17:36:05 79° ENE 17:41:42 10° SSE
ERS-2 3.0 17:33:13 10° SE 17:36:21 27° ENE 17:39:31 10° NNE
SMAP 3.5 17:33:41 10° S 17:38:17 66° WSW 17:42:56 10° NNW
Cosmos 2084 3.3 17:34:27 10° SSW 17:38:40 68° ESE 17:41:44 17° NE
Cosmos 1536 Rocket 4.1 17:35:34 10° SSW 17:39:51 59° W 17:44:09 10° N
Landsat 4 3.7 17:36:29 10° NNE 17:40:17 66° E 17:44:04 10° S
CORIOLIS 4.4 17:38:46 10° S 17:44:10 74° WSW 17:49:35 10° NNW
Cosmos 1125 Rocket 4.3 17:39:15 10° SSW 17:44:26 54° WNW 17:49:37 10° N
USA 238 DEB 4.1 17:37:50 10° NW 17:44:56 73° WSW 17:52:06 10° SSE
USA 238 4.1 17:37:56 10° NW 17:45:02 74° WSW 17:52:12 10° SSE
Okean 2 3.5 17:42:50 10° S 17:46:49 53° E 17:50:48 10° NNE
Cosmos 2227 Rocket 2.7 17:41:24 10° NNW 17:47:00 65° WSW 17:52:33 10° S
Cosmos 1269 Rocket 3.9 17:41:59 10° NNW 17:47:18 75° ENE 17:52:35 10° SSE
Cosmos 1184 Rocket 4.1 17:47:49 10° SSE 17:49:52 22° ESE 17:49:52 22° ESE
ALOS 2.4 17:48:58 10° SSE 17:53:25 47° ENE 17:57:53 10° N
Cosmos 1048 Rocket 4.3 17:49:51 10° NNW 17:55:14 74° WSW 18:00:33 10° S
SKYMED 2 3.5 17:52:30 10° NNE 17:56:52 88° ESE 18:01:12 10° SSW
MTI 4.0 17:56:22 11° N 17:59:25 69° WNW 18:02:39 10° SSW
Cosmos 1980 Rocket 2.2 17:55:04 10° S 18:00:40 68° ESE 18:05:03 17° NNE
SL-8 R/B 4.2 17:59:02 10° SSW 18:03:35 44° SE 18:05:15 31° E
Nadezhda 2 Rocket 4.5 17:57:22 10° N 18:03:42 71° E 18:10:05 10° SSE
Cosmos 1066 Rocket 4.4 17:59:14 10° SSE 18:04:27 43° E 18:07:39 21° NNE
MOS 1 4.2 18:04:17 10° SSE 18:09:58 87° ENE 18:15:40 10° NNW
NOSS 3-2 (A) 4.1 18:05:28 10° NNW 18:13:12 84° WSW 18:21:30 10° SSE
Cosmos 2297 Rocket 3.4 18:07:58 10° NW 18:13:19 45° WSW 18:18:38 10° S
NOSS 3-2 (C) 4.0 18:13:51 10° NNW 18:21:35 86° ENE 18:29:55 10° SSE
ATLAS 3B R/B 4.1 18:18:56 10° NW 18:24:52 36° WSW 18:30:42 10° S
YAOGAN 1 4.2 18:21:35 10° SSW 18:25:33 36° W 18:29:33 10° NNW
Cosmos 1892 Rocket 3.6 18:21:14 10° S 18:25:32 56° E 18:25:32 56° E
Atlas Centaur 2 4.1 18:23:34 10° WSW 18:27:12 19° SSW 18:30:22 10° SSE
NOAA 12 4.1 18:22:17 10° SSE 18:27:33 83° WSW 18:32:50 10° NNW
Cosmos 2344 4.0 18:22:51 10° S 18:29:55 40° ESE 18:31:21 37° E
DELTA 2 R/B (1) 3.5 18:24:46 10° WNW 18:30:22 82° NNE 18:31:48 51° E
Lacrosse 5 rocket 2.6 18:26:49 10° S 18:29:24 29° SSE 18:29:24 29° SSE
USA 215 4.0 18:25:09 10° SSE 18:31:29 53° SW 18:37:51 10° NW
Cosmos 2227 4.3 18:28:31 10° NNW 18:34:03 51° ENE 18:34:03 51° ENE
S3M 3.8 18:34:53 10° S 18:40:58 75° E 18:44:08 30° NNE
FENGYUN 3A 4.2 18:37:57 10° S 18:43:13 57° W 18:48:32 10° NNW
RESURS DK-1 2.9 18:39:22 10° SW 18:43:24 55° WNW 18:43:46 53° NW
SL-16 R/B 2.6 18:37:58 10° S 18:42:32 46° SE 18:42:32 46° SE
SJ 16-02 4.3 18:44:35 10° WNW 18:45:52 11° WNW 18:47:10 10° NW
Cosmos 2322 Rocket 2.6 18:42:20 10° S 18:46:37 45° SE 18:46:37 45° SE
NOSS 2-2 (D) 4.2 18:50:11 10° SW 18:53:33 47° WNW 18:53:33 47° WNW
CENTAUR R/B 3.0 18:56:54 10° NNW 19:04:57 73° ENE 19:06:43 58° ESE
Thor Agena Rocket 4.3 19:21:14 51° W 19:21:14 51° W 19:25:51 10° SSW
Cosmos 1745 Rocket 4.5 19:24:07 10° NNW 19:30:11 57° W 19:36:18 10° SSW
